Location: Bergfeld
(52.0500°N, 11.7833°E)
Time: 23:43:56
(UTC+00:00)

Cosmos 2333 Rocket - Pass Details

Date: 17 February 2020
Orbit: 841 x 860 km, 70.8° (Epoch: 04 April)

Event Time Altitude Azimuth Distance (km) Brightness Sun altitude
Exits shadow 01:49:56 23° 43° (NE) 1,764 4.3 -40.9°
Drops below altitude 10° 01:51:59 10° 37° (NE) 2,496 5.3 -40.7°
Sets 01:54:28 0° 33° (NNE) 3,433 6.2 -40.4°
